Regional Weather Roundup
Issued by NWS Little Rock, AR

Home | Current Version | Previous Version | Text Only | Print | Product List | Glossary On
Versions: 1 2 3 4 5 6 7 8 9 10 11 12 13 14 15 16 17 18 19 20 21 22 23 24 25 26 27 28 29 30 31 32 33
000
ASUS44 KLZK 240205
RWRLZK

WEATHER ROUNDUP FOR ARKANSAS
NATIONAL WEATHER SERVICE LITTLE ROCK AR
900 PM CDT MON APR 23 2018

NOTE: "FAIR" INDICATES FEW OR NO CLOUDS BELOW 12,000 FEET WITH NO
SIGNIFICANT WEATHER AND/OR OBSTRUCTIONS TO VISIBILITY.

ARZ001-003-010-029-240300-
NORTHWEST ARKANSAS

CITY           SKY/WX    TMP DP  RH WIND       PRES   REMARKS
FAYETTEVILLE   CLOUDY    65  43  44 NE5       29.99R
FORT SMITH     CLOUDY    68  47  46 N6        29.96R
HARRISON       CLOUDY    60  50  69 N6        29.99R
BENTONVILLE    CLOUDY    63  47  55 NE6       30.02R
ROGERS         CLOUDY    61  46  57 NE8       30.01R
SILOAM SPGS    CLEAR     61  44  53 NE3       30.00R
HIGHFILL       CLOUDY    63  45  51 NE8       30.00
SPRINGDALE     MOCLDY    64  45  48 NE7       30.01R
$$

ARZ004-005-016-240300-
NORTH CENTRAL ARKANSAS

CITY           SKY/WX    TMP DP  RH WIND       PRES   REMARKS
BATESVILLE     CLOUDY    56  55  97 CALM      29.96R
FLIPPIN        CLOUDY    60  52  74 NW3       29.98R
MTN HOME       MOCLDY    57  52  83 CALM      29.97R
$$

ARZ040-041-240300-
WEST CENTRAL ARKANSAS

CITY           SKY/WX    TMP DP  RH WIND       PRES   REMARKS
MENA           CLOUDY    63  54  72 CALM      29.98R
MOUNT IDA      CLOUDY    64  56  75 CALM      29.93R
$$

ARZ009-017-025-026-028-240300-
NORTHEAST ARKANSAS

CITY           SKY/WX    TMP DP  RH WIND       PRES   REMARKS
CORNING        FAIR      57  57 100 NW7       29.93R
JONESBORO      CLOUDY    56  56 100 CALM      29.92R
NEWPORT        CLOUDY    56  55  97 NW8       29.94R
WALNUT RIDGE   MOCLDY    55  54  96 N8        29.93R
BLYTHEVILLE    CLOUDY    57  54  89 CALM      29.92R
$$

ARZ022-023-033-042-044-240300-
CENTRAL ARKANSAS

CITY           SKY/WX    TMP DP  RH WIND       PRES   REMARKS
LITTLE ROCK    CLOUDY    58  55  90 N3        29.96R
N LITTLE ROCK    N/A     57  55  91 N3        29.93R
JACKSONVILLE   MOCLDY    58  57  96 CALM      29.95R
CONWAY         MOCLDY    59  55  88 N3        29.95R
SEARCY         CLOUDY    57  57 100 NW5       29.96R
HOT SPRINGS    CLOUDY    66  56  70 CALM      29.95R
RUSSELLVILLE   CLOUDY    63  50  62 NE3       29.95R
CLINTON        CLOUDY    57  55  94 CALM      29.96R
$$

ARZ036-240300-
EAST ARKANSAS

CITY           SKY/WX    TMP DP  RH WIND       PRES   REMARKS
WEST MEMPHIS   CLOUDY    56  55  97 CALM      29.92R
$$

ARZ050-053-066-070-073-240300-
SOUTHWEST ARKANSAS

CITY           SKY/WX    TMP DP  RH WIND       PRES   REMARKS
ARKADELPHIA    CLOUDY    66  57  72 CALM      29.95R
CAMDEN         CLOUDY    64  54  68 CALM      29.94R
TEXARKANA      MOCLDY    65  55  70 NW3       29.97R
EL DORADO      CLOUDY    61  61 100 CALM      29.95S
DE QUEEN       CLOUDY    62  59  90 SW3       29.96R
$$

ARZ056-057-069-240300-
SOUTHEAST ARKANSAS

CITY           SKY/WX    TMP DP  RH WIND       PRES   REMARKS
PINE BLUFF     CLOUDY    59  57  93 NE3       29.95R
STUTTGART      CLOUDY    56  55  97 NW5       29.95R
MONTICELLO     CLOUDY    62  57  83 SW3       29.93R

$$






USA.gov is the U.S. government's official web portal to all federal, state and local government web resources and services.